Overview Statistics Trail Chart Weather Telemetry Raw packets
 

This is the latest recevied weather packets stored in our database for station/object SV9FBP-13. If no packets are shown the sender has not sent any weather packets the latest 10 day(s).

<< 8 9 10 11 12 13 14 >>
Time Temp. Humidity Pressure Rain* Wind** Luminosity Snow
1788444461 32.78° C 29% 1006.6 hPa 0 mm - - -
1788443559 32.22° C 34% 1006.6 hPa 0 mm - - -
1788442657 32.22° C 36% 1006.6 hPa 0 mm - - -
1788441756 32.78° C 32% 1006.8 hPa 0 mm - - -
1788440853 32.22° C 41% 1006.8 hPa 0 mm - - -
1788439951 32.78° C 38% 1006.7 hPa 0 mm - - -
1788439048 32.78° C 36% 1006.8 hPa 0 mm - - -
1788438148 33.33° C 34% 1006.8 hPa 0 mm - - -
1788437244 33.89° C 31% 1007 hPa 0 mm - - -
1788436342 33.89° C 31% 1006.9 hPa 0 mm - - -
1788435440 33.89° C 31% 1007 hPa 0 mm - - -
1788434538 34.44° C 30% 1006.9 hPa 0 mm - - -
1788433636 34.44° C 30% 1007 hPa 0 mm - - -
1788432734 34.44° C 30% 1007.1 hPa 0 mm - - -
1788431831 33.89° C 30% 1007.1 hPa 0 mm - - -
1788430929 33.89° C 30% 1007.2 hPa 0 mm - - -
1788430027 33.89° C 30% 1007.4 hPa 0 mm - - -
1788429126 33.89° C 28% 1007.3 hPa 0 mm - - -
1788428223 33.33° C 30% 1007.5 hPa 0 mm - - -
1788427321 33.33° C 30% 1007.7 hPa 0 mm - - -
1788426418 33.33° C 30% 1007.9 hPa 0 mm - - -
1788425517 32.78° C 30% 1007.8 hPa 0 mm - - -
1788424615 32.78° C 31% 1007.8 hPa 0 mm - - -
1788423712 32.78° C 30% 1007.9 hPa 0 mm - - -
1788422810 33.33° C 29% 1007.8 hPa 0 mm - - -

* Rain latest hour (hover to see other rain measurements)
** Current wind speed in m/s (hover to see current wind gust speed)